Time,TemperatureF,DewpointF,PressureIn,WindDirection,WindDirectionDegrees,WindSpeedMPH,WindSpeedGustMPH,Humidity,HourlyPrecipIn,Conditions,Clouds,dailyrainin,SolarRadiationWatts/m^2,SoftwareType,DateUTC
2013-05-27 00:02:00,73.0,63.0,-100.00,NE,42,10.0,31.0,72,0.00,,,0.00,0.000000,,2013-05-27 10:02:00,
2013-05-27 00:12:00,73.0,63.0,-100.00,NE,42,10.0,31.0,72,0.00,,,0.00,0.000000,,2013-05-27 10:12:00,
2013-05-27 00:22:00,73.0,63.0,-100.00,NE,42,10.0,31.0,72,0.00,,,0.00,0.000000,,2013-05-27 10:22:00,
2013-05-27 00:32:00,73.0,63.0,-100.00,NE,42,10.0,31.0,72,0.00,,,0.00,0.000000,,2013-05-27 10:32:00,
2013-05-27 00:52:00,73.0,62.0,-100.00,NNW,340,10.0,28.0,69,0.00,,,0.00,0.000000,,2013-05-27 10:52:00,
2013-05-27 01:02:00,73.0,62.0,-100.00,NNW,340,10.0,28.0,69,0.00,,,0.00,0.000000,,2013-05-27 11:02:00,
2013-05-27 01:11:00,73.0,62.0,-100.00,NNW,340,10.0,28.0,69,0.00,,,0.00,0.000000,,2013-05-27 11:11:00,
2013-05-27 01:21:00,73.0,62.0,-100.00,NNW,340,10.0,28.0,69,0.00,,,0.00,0.000000,,2013-05-27 11:21:00,
2013-05-27 01:31:00,73.0,62.0,-100.00,NNW,340,10.0,28.0,69,0.00,,,0.00,0.000000,,2013-05-27 11:31:00,
2013-05-27 01:52:00,71.0,60.0,-100.00,NE,44,10.0,32.0,69,0.00,,,0.00,0.000000,,2013-05-27 11:52:00,
2013-05-27 02:01:00,71.0,60.0,-100.00,NE,44,10.0,32.0,69,0.00,,,0.00,0.000000,,2013-05-27 12:01:00,
2013-05-27 02:11:00,71.0,60.0,-100.00,NE,44,10.0,32.0,69,0.00,,,0.00,0.000000,,2013-05-27 12:11:00,
2013-05-27 02:21:00,71.0,60.0,-100.00,NE,44,10.0,32.0,69,0.00,,,0.00,0.000000,,2013-05-27 12:21:00,
2013-05-27 02:31:00,71.0,60.0,-100.00,NE,44,10.0,32.0,69,0.00,,,0.00,0.000000,,2013-05-27 12:31:00,
2013-05-27 02:52:00,73.0,61.0,-100.00,NNE,25,10.0,31.0,67,0.00,,,0.00,0.000000,,2013-05-27 12:52:00,
2013-05-27 03:01:00,73.0,61.0,-100.00,NNE,25,10.0,31.0,67,0.00,,,0.00,0.000000,,2013-05-27 13:01:00,
2013-05-27 03:11:00,73.0,61.0,-100.00,NNE,25,10.0,31.0,67,0.00,,,0.00,0.000000,,2013-05-27 13:11:00,
2013-05-27 03:21:00,73.0,61.0,-100.00,NNE,25,10.0,31.0,67,0.00,,,0.00,0.000000,,2013-05-27 13:21:00,
2013-05-27 03:32:00,73.0,61.0,-100.00,NNE,25,10.0,31.0,67,0.00,,,0.00,0.000000,,2013-05-27 13:32:00,
2013-05-27 04:01:00,71.0,60.0,-100.00,NNE,30,9.0,35.0,69,0.00,,,0.00,0.000000,,2013-05-27 14:01:00,
2013-05-27 04:11:00,71.0,60.0,-100.00,NNE,30,9.0,35.0,69,0.00,,,0.00,0.000000,,2013-05-27 14:11:00,
2013-05-27 04:21:00,71.0,60.0,-100.00,NNE,30,9.0,35.0,69,0.00,,,0.00,0.000000,,2013-05-27 14:21:00,
2013-05-27 04:31:00,71.0,60.0,-100.00,NNE,30,9.0,35.0,69,0.00,,,0.00,0.000000,,2013-05-27 14:31:00,
2013-05-27 04:52:00,71.0,61.0,-100.00,NNE,25,10.0,27.0,70,0.00,,,0.00,0.000000,,2013-05-27 14:52:00,
2013-05-27 05:01:00,71.0,61.0,-100.00,NNE,25,10.0,27.0,70,0.00,,,0.00,0.000000,,2013-05-27 15:01:00,
2013-05-27 05:11:00,71.0,61.0,-100.00,NNE,25,10.0,27.0,70,0.00,,,0.00,0.000000,,2013-05-27 15:11:00,
2013-05-27 05:21:00,71.0,61.0,-100.00,NNE,25,10.0,27.0,70,0.00,,,0.00,0.000000,,2013-05-27 15:21:00,
2013-05-27 05:33:00,71.0,61.0,-100.00,NNE,25,10.0,27.0,70,0.00,,,0.00,0.000000,,2013-05-27 15:33:00,
2013-05-27 05:53:00,71.0,62.0,-100.00,East,91,7.0,21.0,72,0.00,,,0.00,0.000000,,2013-05-27 15:53:00,
2013-05-27 06:02:00,71.0,62.0,-100.00,East,91,7.0,21.0,72,0.00,,,0.00,0.000000,,2013-05-27 16:02:00,
2013-05-27 06:12:00,71.0,62.0,-100.00,East,91,7.0,21.0,72,0.00,,,0.00,0.000000,,2013-05-27 16:12:00,
2013-05-27 06:23:00,71.0,62.0,-100.00,East,91,7.0,21.0,72,0.00,,,0.00,0.000000,,2013-05-27 16:23:00,
2013-05-27 06:33:00,71.0,62.0,-100.00,East,91,7.0,21.0,72,0.00,,,0.00,0.000000,,2013-05-27 16:33:00,
2013-05-27 06:52:00,71.0,61.0,-100.00,NNE,29,9.0,25.0,71,0.00,,,0.00,0.000000,,2013-05-27 16:52:00,
2013-05-27 07:02:00,71.0,61.0,-100.00,NNE,29,9.0,25.0,71,0.00,,,0.00,0.000000,,2013-05-27 17:02:00,
2013-05-27 07:11:00,71.0,61.0,-100.00,NNE,29,9.0,25.0,71,0.00,,,0.00,0.000000,,2013-05-27 17:11:00,
2013-05-27 07:22:00,71.0,61.0,-100.00,NNE,29,9.0,25.0,71,0.00,,,0.00,0.000000,,2013-05-27 17:22:00,
2013-05-27 07:31:00,71.0,61.0,-100.00,NNE,29,9.0,25.0,71,0.00,,,0.00,0.000000,,2013-05-27 17:31:00,
2013-05-27 08:02:00,73.0,62.0,-100.00,NE,42,11.0,28.0,69,0.00,,,0.00,13.000000,,2013-05-27 18:02:00,
2013-05-27 08:11:00,73.0,62.0,-100.00,NE,42,11.0,28.0,69,0.00,,,0.00,13.000000,,2013-05-27 18:11:00,
2013-05-27 08:21:00,73.0,62.0,-100.00,NE,42,11.0,28.0,69,0.00,,,0.00,13.000000,,2013-05-27 18:21:00,
2013-05-27 08:32:00,73.0,62.0,-100.00,NE,42,11.0,28.0,69,0.00,,,0.00,13.000000,,2013-05-27 18:32:00,
2013-05-27 09:01:00,75.0,60.0,-100.00,WSW,243,10.0,31.0,60,0.00,,,0.00,75.000000,,2013-05-27 19:01:00,
2013-05-27 09:11:00,75.0,60.0,-100.00,WSW,243,10.0,31.0,60,0.00,,,0.00,75.000000,,2013-05-27 19:11:00,
2013-05-27 09:21:00,75.0,60.0,-100.00,WSW,243,10.0,31.0,60,0.00,,,0.00,75.000000,,2013-05-27 19:21:00,
2013-05-27 09:31:00,75.0,60.0,-100.00,WSW,243,10.0,31.0,60,0.00,,,0.00,75.000000,,2013-05-27 19:31:00,
2013-05-27 10:01:00,79.0,61.0,-100.00,ENE,60,7.0,28.0,54,0.00,,,0.00,510.000000,,2013-05-27 20:01:00,
2013-05-27 10:11:00,79.0,61.0,-100.00,ENE,60,7.0,28.0,54,0.00,,,0.00,510.000000,,2013-05-27 20:11:00,
2013-05-27 10:22:00,79.0,61.0,-100.00,ENE,60,7.0,28.0,54,0.00,,,0.00,510.000000,,2013-05-27 20:22:00,
2013-05-27 10:32:00,79.0,61.0,-100.00,ENE,60,7.0,28.0,54,0.00,,,0.00,510.000000,,2013-05-27 20:32:00,
2013-05-27 10:52:00,81.0,62.0,-100.00,WNW,288,8.0,26.0,53,0.00,,,0.00,842.000000,,2013-05-27 20:52:00,
2013-05-27 11:01:00,81.0,62.0,-100.00,WNW,288,8.0,26.0,53,0.00,,,0.00,842.000000,,2013-05-27 21:01:00,
2013-05-27 11:12:00,81.0,62.0,-100.00,WNW,288,8.0,26.0,53,0.00,,,0.00,842.000000,,2013-05-27 21:12:00,
2013-05-27 11:21:00,81.0,62.0,-100.00,WNW,288,8.0,26.0,53,0.00,,,0.00,842.000000,,2013-05-27 21:21:00,
2013-05-27 11:32:00,81.0,62.0,-100.00,WNW,288,8.0,26.0,53,0.00,,,0.00,842.000000,,2013-05-27 21:32:00,
2013-05-27 11:53:00,81.0,59.0,-100.00,SSW,192,11.0,27.0,48,0.00,,,0.00,957.000000,,2013-05-27 21:53:00,
2013-05-27 12:02:00,81.0,59.0,-100.00,SSW,192,11.0,27.0,48,0.00,,,0.00,957.000000,,2013-05-27 22:02:00,
2013-05-27 12:12:00,81.0,59.0,-100.00,SSW,192,11.0,27.0,48,0.00,,,0.00,957.000000,,2013-05-27 22:12:00,
2013-05-27 12:22:00,81.0,59.0,-100.00,SSW,192,11.0,27.0,48,0.00,,,0.00,957.000000,,2013-05-27 22:22:00,
2013-05-27 12:32:00,81.0,59.0,-100.00,SSW,192,11.0,27.0,48,0.00,,,0.00,957.000000,,2013-05-27 22:32:00,
2013-05-27 12:53:00,82.0,59.0,-100.00,East,98,6.0,26.0,45,0.00,,,0.00,1199.000000,,2013-05-27 22:53:00,
2013-05-27 13:02:00,82.0,59.0,-100.00,East,98,6.0,26.0,45,0.00,,,0.00,1199.000000,,2013-05-27 23:02:00,
2013-05-27 13:12:00,82.0,59.0,-100.00,East,98,6.0,26.0,45,0.00,,,0.00,1199.000000,,2013-05-27 23:12:00,
2013-05-27 13:22:00,82.0,59.0,-100.00,East,98,6.0,26.0,45,0.00,,,0.00,1199.000000,,2013-05-27 23:22:00,
2013-05-27 13:32:00,82.0,59.0,-100.00,East,98,6.0,26.0,45,0.00,,,0.00,1199.000000,,2013-05-27 23:32:00,
2013-05-27 14:01:00,82.0,59.0,-100.00,SSE,154,9.0,22.0,45,0.00,,,0.00,1214.000000,,2013-05-28 00:01:00,
2013-05-27 14:11:00,82.0,59.0,-100.00,SSE,154,9.0,22.0,45,0.00,,,0.00,1214.000000,,2013-05-28 00:11:00,
2013-05-27 14:21:00,82.0,59.0,-100.00,SSE,154,9.0,22.0,45,0.00,,,0.00,1214.000000,,2013-05-28 00:21:00,
2013-05-27 14:31:00,82.0,59.0,-100.00,SSE,154,9.0,22.0,45,0.00,,,0.00,1214.000000,,2013-05-28 00:31:00,
2013-05-27 15:01:00,81.0,58.0,-100.00,NE,56,8.0,23.0,46,0.00,,,0.00,1272.000000,,2013-05-28 01:01:00,
2013-05-27 15:11:00,81.0,58.0,-100.00,NE,56,8.0,23.0,46,0.00,,,0.00,1272.000000,,2013-05-28 01:11:00,
2013-05-27 15:21:00,81.0,58.0,-100.00,NE,56,8.0,23.0,46,0.00,,,0.00,1272.000000,,2013-05-28 01:21:00,
2013-05-27 15:31:00,81.0,58.0,-100.00,NE,56,8.0,23.0,46,0.00,,,0.00,1272.000000,,2013-05-28 01:31:00,
2013-05-27 15:52:00,78.0,58.0,-100.00,ENE,71,7.0,19.0,50,0.00,,,0.00,1208.000000,,2013-05-28 01:52:00,
2013-05-27 16:02:00,78.0,58.0,-100.00,ENE,71,7.0,19.0,50,0.00,,,0.00,1208.000000,,2013-05-28 02:02:00,
2013-05-27 16:11:00,78.0,58.0,-100.00,ENE,71,7.0,19.0,50,0.00,,,0.00,1208.000000,,2013-05-28 02:11:00,
2013-05-27 16:21:00,78.0,58.0,-100.00,ENE,71,7.0,19.0,50,0.00,,,0.00,1208.000000,,2013-05-28 02:21:00,
2013-05-27 16:32:00,78.0,58.0,-100.00,ENE,71,7.0,19.0,50,0.00,,,0.00,1208.000000,,2013-05-28 02:32:00,
2013-05-27 17:01:00,83.0,62.0,-100.00,WNW,291,5.0,22.0,49,0.00,,,0.00,852.000000,,2013-05-28 03:01:00,
2013-05-27 17:11:00,83.0,62.0,-100.00,WNW,291,5.0,22.0,49,0.00,,,0.00,852.000000,,2013-05-28 03:11:00,
2013-05-27 17:21:00,83.0,62.0,-100.00,WNW,291,5.0,22.0,49,0.00,,,0.00,852.000000,,2013-05-28 03:21:00,
2013-05-27 17:33:00,83.0,62.0,-100.00,WNW,291,5.0,22.0,49,0.00,,,0.00,852.000000,,2013-05-28 03:33:00,
2013-05-27 18:02:00,78.0,59.0,-100.00,ENE,64,5.0,19.0,52,0.00,,,0.00,223.000000,,2013-05-28 04:02:00,
2013-05-27 18:12:00,78.0,59.0,-100.00,ENE,64,5.0,19.0,52,0.00,,,0.00,223.000000,,2013-05-28 04:12:00,
2013-05-27 18:22:00,78.0,59.0,-100.00,ENE,64,5.0,19.0,52,0.00,,,0.00,223.000000,,2013-05-28 04:22:00,
2013-05-27 18:33:00,78.0,59.0,-100.00,ENE,64,5.0,19.0,52,0.00,,,0.00,223.000000,,2013-05-28 04:33:00,
2013-05-27 19:02:00,75.0,62.0,-100.00,NNE,26,5.0,18.0,64,0.00,,,0.00,162.000000,,2013-05-28 05:02:00,
2013-05-27 19:12:00,75.0,62.0,-100.00,NNE,26,5.0,18.0,64,0.00,,,0.00,162.000000,,2013-05-28 05:12:00,
2013-05-27 19:22:00,75.0,62.0,-100.00,NNE,26,5.0,18.0,64,0.00,,,0.00,162.000000,,2013-05-28 05:22:00,
2013-05-27 19:32:00,75.0,62.0,-100.00,NNE,26,5.0,18.0,64,0.00,,,0.00,162.000000,,2013-05-28 05:32:00,
2013-05-27 19:52:00,72.0,61.0,-100.00,ENE,60,9.0,20.0,68,0.00,,,0.00,88.000000,,2013-05-28 05:52:00,
2013-05-27 20:02:00,72.0,61.0,-100.00,ENE,60,9.0,20.0,68,0.00,,,0.00,88.000000,,2013-05-28 06:02:00,
2013-05-27 20:11:00,72.0,61.0,-100.00,ENE,60,9.0,20.0,68,0.00,,,0.00,88.000000,,2013-05-28 06:11:00,
2013-05-27 20:21:00,72.0,61.0,-100.00,ENE,60,9.0,20.0,68,0.00,,,0.00,88.000000,,2013-05-28 06:21:00,
2013-05-27 20:31:00,72.0,61.0,-100.00,ENE,60,9.0,20.0,68,0.00,,,0.00,88.000000,,2013-05-28 06:31:00,
2013-05-27 20:52:00,73.0,62.0,-100.00,NE,49,11.0,26.0,69,0.00,,,0.00,10.000000,,2013-05-28 06:52:00,
2013-05-27 21:01:00,73.0,62.0,-100.00,NE,49,11.0,26.0,69,0.00,,,0.00,10.000000,,2013-05-28 07:01:00,
2013-05-27 21:11:00,73.0,62.0,-100.00,NE,49,11.0,26.0,69,0.00,,,0.00,10.000000,,2013-05-28 07:11:00,
2013-05-27 21:21:00,73.0,62.0,-100.00,NE,49,11.0,26.0,69,0.00,,,0.00,10.000000,,2013-05-28 07:21:00,
2013-05-27 21:31:00,73.0,62.0,-100.00,NE,49,11.0,26.0,69,0.00,,,0.00,10.000000,,2013-05-28 07:31:00,
2013-05-27 22:02:00,73.0,62.0,-100.00,North,1,7.0,29.0,68,0.00,,,0.00,0.000000,,2013-05-28 08:02:00,
2013-05-27 22:11:00,73.0,62.0,-100.00,North,1,7.0,29.0,68,0.00,,,0.00,0.000000,,2013-05-28 08:11:00,
2013-05-27 22:21:00,73.0,62.0,-100.00,North,1,7.0,29.0,68,0.00,,,0.00,0.000000,,2013-05-28 08:21:00,
2013-05-27 22:32:00,73.0,62.0,-100.00,North,1,7.0,29.0,68,0.00,,,0.00,0.000000,,2013-05-28 08:32:00,
2013-05-27 23:01:00,73.0,63.0,-100.00,NNE,28,7.0,27.0,70,0.00,,,-99.99,0.000000,,2013-05-28 09:01:00,
2013-05-27 23:11:00,73.0,63.0,-100.00,NNE,28,7.0,27.0,70,0.00,,,-99.99,0.000000,,2013-05-28 09:11:00,
2013-05-27 23:21:00,73.0,63.0,-100.00,NNE,28,7.0,27.0,70,0.00,,,-99.99,0.000000,,2013-05-28 09:21:00,
2013-05-27 23:33:00,73.0,63.0,-100.00,NNE,28,7.0,27.0,70,0.00,,,-99.99,0.000000,,2013-05-28 09:33:00,
2013-05-27 23:54:00,73.0,62.0,-100.00,NNE,31,8.0,27.0,68,0.00,,,0.00,0.000000,,2013-05-28 09:54:00,